Torna al catalogo

COSMOS 1513

AttivoNavigazionePO
NORAD 14546·PAYLOAD·🇷🇺 Russia

Lanciato Dec 8, 1983 da Plesetsk Cosmodrome

Loading…

Prossimi Passaggi (prossime 24 ore)

TLE

AggiornatoSource: Space-Track

Epoca: Sep 14, 2026, 04:50 UTC

1 14546U 83120A   26257.20155334  .00000062  00000-0  49508-4 0  9997
2 14546  82.9426 166.5982 0038940  12.0624 139.9537 13.74472092144532

Traccia COSMOS 1513 in tempo reale con AllMySat

Download on the App Store